Time,TemperatureF,DewpointF,PressureIn,WindDirection,WindDirectionDegrees,WindSpeedMPH,WindSpeedGustMPH,Humidity,HourlyPrecipIn,Conditions,Clouds,dailyrainin,SoftwareType,DateUTC
2013-01-22 00:10:00,46.9,45.0,30.24,NNE,26,2.0,2.0,94,0.00,,,0.00,weatherlink.com 1.10,2013-01-22 06:10:00,
2013-01-22 00:25:00,48.1,47.0,30.24,NNE,13,4.0,4.0,95,0.00,,,0.00,weatherlink.com 1.10,2013-01-22 06:25:00,
2013-01-22 00:40:00,48.3,46.0,30.24,NNE,25,3.0,3.0,93,0.00,,,0.00,weatherlink.com 1.10,2013-01-22 06:40:00,
2013-01-22 00:55:00,47.8,45.0,30.24,NE,49,3.0,6.0,91,0.00,,,0.00,weatherlink.com 1.10,2013-01-22 06:55:00,
2013-01-22 01:10:00,47.3,45.0,30.24,NE,44,2.0,6.0,90,0.00,,,0.00,weatherlink.com 1.10,2013-01-22 07:10:00,
2013-01-22 01:25:00,46.7,44.0,30.24,ENE,73,3.0,5.0,90,0.00,,,0.00,weatherlink.com 1.10,2013-01-22 07:25:00,
2013-01-22 01:40:00,46.7,43.0,30.24,NNE,19,3.0,7.0,87,0.00,,,0.00,weatherlink.com 1.10,2013-01-22 07:40:00,
2013-01-22 01:55:00,46.5,42.0,30.24,NNE,32,2.0,6.0,85,0.00,,,0.00,weatherlink.com 1.10,2013-01-22 07:55:00,
2013-01-22 02:10:00,45.9,43.0,30.25,NE,39,1.0,3.0,88,0.00,,,0.00,weatherlink.com 1.10,2013-01-22 08:10:00,
2013-01-22 02:25:00,45.3,42.0,30.25,NE,37,0.0,2.0,89,0.00,,,0.00,weatherlink.com 1.10,2013-01-22 08:25:00,
2013-01-22 02:40:00,44.6,42.0,30.25,NNE,19,4.0,6.0,90,0.00,,,0.00,weatherlink.com 1.10,2013-01-22 08:40:00,
2013-01-22 02:55:00,44.6,42.0,30.26,NNE,30,2.0,5.0,89,0.00,,,0.00,weatherlink.com 1.10,2013-01-22 08:55:00,
2013-01-22 03:10:00,44.2,41.0,30.26,North,8,5.0,8.0,88,0.00,,,0.00,weatherlink.com 1.10,2013-01-22 09:10:00,
2013-01-22 03:25:00,44.0,40.0,30.26,NE,50,4.0,5.0,87,0.00,,,0.00,weatherlink.com 1.10,2013-01-22 09:25:00,
2013-01-22 03:40:00,43.9,40.0,30.26,NE,41,4.0,7.0,87,0.00,,,0.00,weatherlink.com 1.10,2013-01-22 09:40:00,
2013-01-22 03:55:00,43.6,40.0,30.26,NNE,23,4.0,6.0,86,0.00,,,0.00,weatherlink.com 1.10,2013-01-22 09:55:00,
2013-01-22 04:10:00,43.4,39.0,30.26,NE,49,3.0,5.0,86,0.00,,,0.00,weatherlink.com 1.10,2013-01-22 10:10:00,
2013-01-22 04:25:00,43.3,39.0,30.26,ENE,58,3.0,7.0,86,0.00,,,0.00,weatherlink.com 1.10,2013-01-22 10:25:00,
2013-01-22 04:40:00,43.3,39.0,30.26,ENE,75,4.0,7.0,86,0.00,,,0.00,weatherlink.com 1.10,2013-01-22 10:40:00,
2013-01-22 04:55:00,43.1,39.0,30.27,NE,41,4.0,4.0,86,0.00,,,0.00,weatherlink.com 1.10,2013-01-22 10:55:00,
2013-01-22 05:10:00,42.6,39.0,30.27,NE,46,2.0,3.0,87,0.00,,,0.00,weatherlink.com 1.10,2013-01-22 11:10:00,
2013-01-22 05:26:00,42.4,39.0,30.27,NNE,25,2.0,5.0,87,0.00,,,0.00,weatherlink.com 1.10,2013-01-22 11:26:00,
2013-01-22 05:42:00,41.9,39.0,30.28,NNE,20,2.0,2.0,88,0.00,,,0.00,weatherlink.com 1.10,2013-01-22 11:42:00,
2013-01-22 05:57:00,41.7,38.0,30.28,NNE,16,3.0,5.0,88,0.00,,,0.00,weatherlink.com 1.10,2013-01-22 11:57:00,
2013-01-22 06:13:00,41.4,38.0,30.29,NNE,23,1.0,4.0,88,0.00,,,0.00,weatherlink.com 1.10,2013-01-22 12:13:00,
2013-01-22 06:28:00,41.2,38.0,30.30,NNE,16,2.0,5.0,89,0.00,,,0.00,weatherlink.com 1.10,2013-01-22 12:28:00,
2013-01-22 06:43:00,40.9,38.0,30.30,ENE,65,5.0,5.0,89,0.00,,,0.00,weatherlink.com 1.10,2013-01-22 12:43:00,
2013-01-22 06:58:00,40.8,38.0,30.30,NNE,15,2.0,5.0,89,0.00,,,0.00,weatherlink.com 1.10,2013-01-22 12:58:00,
2013-01-22 07:14:00,40.6,38.0,30.31,NNE,20,3.0,4.0,89,0.00,,,0.00,weatherlink.com 1.10,2013-01-22 13:14:00,
2013-01-22 07:30:00,40.6,38.0,30.32,NNE,25,2.0,5.0,89,0.00,,,0.00,weatherlink.com 1.10,2013-01-22 13:30:00,
2013-01-22 07:45:00,40.9,38.0,30.32,NE,56,5.0,8.0,88,0.00,,,0.00,weatherlink.com 1.10,2013-01-22 13:45:00,
2013-01-22 08:00:00,41.5,38.0,30.33,ENE,59,4.0,8.0,87,0.00,,,0.00,weatherlink.com 1.10,2013-01-22 14:00:00,
2013-01-22 08:15:00,42.3,38.0,30.33,ENE,67,6.0,8.0,86,0.00,,,0.00,weatherlink.com 1.10,2013-01-22 14:15:00,
2013-01-22 08:30:00,43.2,39.0,30.33,NE,51,5.0,8.0,84,0.00,,,0.00,weatherlink.com 1.10,2013-01-22 14:30:00,
2013-01-22 08:45:00,44.2,39.0,30.33,NE,40,5.0,9.0,81,0.00,,,0.00,weatherlink.com 1.10,2013-01-22 14:45:00,
2013-01-22 09:00:00,45.3,39.0,30.33,East,82,5.0,8.0,80,0.00,,,0.00,weatherlink.com 1.10,2013-01-22 15:00:00,
2013-01-22 09:16:00,46.3,40.0,30.34,ENE,66,5.0,9.0,78,0.00,,,0.00,weatherlink.com 1.10,2013-01-22 15:16:00,
2013-01-22 09:32:00,47.3,40.0,30.35,NE,52,6.0,8.0,76,0.00,,,0.00,weatherlink.com 1.10,2013-01-22 15:32:00,
2013-01-22 09:48:00,48.5,41.0,30.36,ENE,57,6.0,8.0,76,0.00,,,0.00,weatherlink.com 1.10,2013-01-22 15:48:00,
2013-01-22 10:03:00,50.0,42.0,30.36,East,85,4.0,6.0,74,0.00,,,0.00,weatherlink.com 1.10,2013-01-22 16:03:00,
2013-01-22 10:19:00,51.2,42.0,30.36,ESE,105,2.0,8.0,72,0.00,,,0.00,weatherlink.com 1.10,2013-01-22 16:19:00,
2013-01-22 10:35:00,52.8,43.0,30.36,ENE,75,4.0,9.0,69,0.00,,,0.00,weatherlink.com 1.10,2013-01-22 16:35:00,
2013-01-22 10:50:00,53.6,43.0,30.36,NE,53,3.0,8.0,68,0.00,,,0.00,weatherlink.com 1.10,2013-01-22 16:50:00,
2013-01-22 11:06:00,54.5,44.0,30.36,ESE,112,3.0,6.0,67,0.00,,,0.00,weatherlink.com 1.10,2013-01-22 17:06:00,
2013-01-22 11:21:00,55.4,45.0,30.35,ESE,118,0.0,6.0,67,0.00,,,0.00,weatherlink.com 1.10,2013-01-22 17:21:00,
2013-01-22 11:37:00,56.7,45.0,30.34,NNE,15,1.0,5.0,64,0.00,,,0.00,weatherlink.com 1.10,2013-01-22 17:37:00,
2013-01-22 11:52:00,58.8,46.0,30.32,ENE,71,0.0,4.0,62,0.00,,,0.00,weatherlink.com 1.10,2013-01-22 17:52:00,
2013-01-22 12:08:00,59.9,46.0,30.32,WSW,243,1.0,5.0,61,0.00,,,0.00,weatherlink.com 1.10,2013-01-22 18:08:00,
2013-01-22 12:24:00,61.3,46.0,30.31,NNE,33,1.0,4.0,58,0.00,,,0.00,weatherlink.com 1.10,2013-01-22 18:24:00,
2013-01-22 12:40:00,61.7,47.0,30.30,SSW,204,4.0,6.0,58,0.00,,,0.00,weatherlink.com 1.10,2013-01-22 18:40:00,
2013-01-22 12:55:00,62.8,47.0,30.29,SSW,212,4.0,7.0,57,0.00,,,0.00,weatherlink.com 1.10,2013-01-22 18:55:00,
2013-01-22 13:10:00,63.4,47.0,30.29,SE,146,2.0,7.0,56,0.00,,,0.00,weatherlink.com 1.10,2013-01-22 19:10:00,
2013-01-22 13:26:00,64.3,48.0,30.27,SSW,211,4.0,7.0,55,0.00,,,0.00,weatherlink.com 1.10,2013-01-22 19:26:00,
2013-01-22 13:42:00,65.6,48.0,30.27,South,191,2.0,7.0,53,0.00,,,0.00,weatherlink.com 1.10,2013-01-22 19:42:00,
2013-01-22 14:12:00,66.3,48.0,30.26,SW,214,6.0,10.0,51,0.00,,,0.00,weatherlink.com 1.10,2013-01-22 20:12:00,
2013-01-22 14:28:00,67.0,48.0,30.26,South,179,4.0,7.0,51,0.00,,,0.00,weatherlink.com 1.10,2013-01-22 20:28:00,
2013-01-22 14:43:00,67.3,47.0,30.26,South,188,7.0,8.0,48,0.00,,,0.00,weatherlink.com 1.10,2013-01-22 20:43:00,
2013-01-22 14:58:00,67.1,46.0,30.26,SW,232,6.0,11.0,47,0.00,,,0.00,weatherlink.com 1.10,2013-01-22 20:58:00,
2013-01-22 15:14:00,67.2,46.0,30.26,WSW,248,7.0,10.0,47,0.00,,,0.00,weatherlink.com 1.10,2013-01-22 21:14:00,
2013-01-22 15:29:00,67.1,46.0,30.26,SW,225,3.0,11.0,47,0.00,,,0.00,weatherlink.com 1.10,2013-01-22 21:29:00,
2013-01-22 15:44:00,67.0,47.0,30.26,SW,229,4.0,9.0,49,0.00,,,0.00,weatherlink.com 1.10,2013-01-22 21:44:00,
2013-01-22 16:00:00,66.6,48.0,30.26,WSW,243,6.0,9.0,51,0.00,,,0.00,weatherlink.com 1.10,2013-01-22 22:00:00,
2013-01-22 16:16:00,66.5,48.0,30.27,SW,235,6.0,9.0,52,0.00,,,0.00,weatherlink.com 1.10,2013-01-22 22:16:00,
2013-01-22 16:31:00,66.1,48.0,30.27,WSW,238,3.0,10.0,53,0.00,,,0.00,weatherlink.com 1.10,2013-01-22 22:31:00,
2013-01-22 16:46:00,65.9,48.0,30.27,SW,226,3.0,8.0,53,0.00,,,0.00,weatherlink.com 1.10,2013-01-22 22:46:00,
2013-01-22 17:01:00,65.4,49.0,30.27,SSW,205,4.0,7.0,55,0.00,,,0.00,weatherlink.com 1.10,2013-01-22 23:01:00,
2013-01-22 17:17:00,64.9,49.0,30.27,SSE,153,2.0,6.0,56,0.00,,,0.00,weatherlink.com 1.10,2013-01-22 23:17:00,
2013-01-22 17:33:00,63.2,49.0,30.27,SSE,157,2.0,5.0,60,0.00,,,0.00,weatherlink.com 1.10,2013-01-22 23:33:00,
2013-01-22 17:48:00,61.3,49.0,30.27,SSW,208,1.0,5.0,65,0.00,,,0.00,weatherlink.com 1.10,2013-01-22 23:48:00,
2013-01-22 18:03:00,59.8,50.0,30.27,SSE,163,0.0,3.0,69,0.00,,,0.00,weatherlink.com 1.10,2013-01-23 00:03:00,
2013-01-22 18:18:00,58.5,49.0,30.27,SSE,159,0.0,2.0,71,0.00,,,0.00,weatherlink.com 1.10,2013-01-23 00:18:00,
2013-01-22 18:34:00,57.5,49.0,30.27,SSE,149,0.0,2.0,73,0.00,,,0.00,weatherlink.com 1.10,2013-01-23 00:34:00,
2013-01-22 18:49:00,56.6,49.0,30.28,SSE,163,0.0,0.0,75,0.00,,,0.00,weatherlink.com 1.10,2013-01-23 00:49:00,
2013-01-22 19:04:00,55.6,49.0,30.28,SSE,163,0.0,1.0,78,0.00,,,0.00,weatherlink.com 1.10,2013-01-23 01:04:00,
2013-01-22 19:18:00,54.7,49.0,30.28,SSE,163,0.0,1.0,80,0.00,,,0.00,weatherlink.com 1.10,2013-01-23 01:18:00,
2013-01-22 19:33:00,53.7,49.0,30.28,SSE,163,0.0,0.0,83,0.00,,,0.00,weatherlink.com 1.10,2013-01-23 01:33:00,
2013-01-22 19:49:00,53.1,48.0,30.28,SSE,163,0.0,0.0,84,0.00,,,0.00,weatherlink.com 1.10,2013-01-23 01:49:00,
2013-01-22 20:04:00,53.1,49.0,30.29,South,174,1.0,1.0,85,0.00,,,0.00,weatherlink.com 1.10,2013-01-23 02:04:00,
2013-01-22 20:19:00,52.9,49.0,30.29,SW,217,0.0,2.0,87,0.00,,,0.00,weatherlink.com 1.10,2013-01-23 02:19:00,
2013-01-22 20:34:00,52.9,49.0,30.30,SW,217,0.0,0.0,86,0.00,,,0.00,weatherlink.com 1.10,2013-01-23 02:34:00,
2013-01-22 20:49:00,51.8,48.0,30.30,SW,217,0.0,0.0,87,0.00,,,0.00,weatherlink.com 1.10,2013-01-23 02:49:00,
2013-01-22 21:05:00,51.1,48.0,30.30,SW,217,0.0,0.0,89,0.00,,,0.00,weatherlink.com 1.10,2013-01-23 03:05:00,
2013-01-22 21:36:00,49.9,48.0,30.31,SW,217,0.0,0.0,92,0.00,,,0.00,weatherlink.com 1.10,2013-01-23 03:36:00,
2013-01-22 21:51:00,49.5,47.0,30.31,SW,217,0.0,0.0,92,0.00,,,0.00,weatherlink.com 1.10,2013-01-23 03:51:00,
2013-01-22 22:07:00,49.1,47.0,30.31,SW,217,0.0,0.0,93,0.00,,,0.00,weatherlink.com 1.10,2013-01-23 04:07:00,
2013-01-22 22:22:00,48.5,47.0,30.32,SW,217,0.0,0.0,93,0.00,,,0.00,weatherlink.com 1.10,2013-01-23 04:22:00,
2013-01-22 22:37:00,48.4,47.0,30.32,SW,217,0.0,0.0,95,0.00,,,0.00,weatherlink.com 1.10,2013-01-23 04:37:00,
2013-01-22 22:52:00,48.0,47.0,30.32,SW,217,0.0,0.0,95,0.00,,,0.00,weatherlink.com 1.10,2013-01-23 04:52:00,
2013-01-22 23:08:00,47.6,46.0,30.32,SW,217,0.0,0.0,95,0.00,,,0.00,weatherlink.com 1.10,2013-01-23 05:08:00,
2013-01-22 23:23:00,47.1,46.0,30.32,SW,217,0.0,0.0,96,0.00,,,0.00,weatherlink.com 1.10,2013-01-23 05:23:00,
2013-01-22 23:38:00,47.2,46.0,30.32,SW,217,0.0,0.0,96,0.00,,,0.00,weatherlink.com 1.10,2013-01-23 05:38:00,
2013-01-22 23:53:00,47.0,46.0,30.31,SW,217,0.0,0.0,97,0.00,,,0.00,weatherlink.com 1.10,2013-01-23 05:53:00,